Simultaneous Nadir Overpasses (SNOs) Predictions

Prediction of SNOs between LANDSAT-8 and METOP-A Satellite Orbit:

Table of predicted SNOs for the next 14.0 days since TLE Epoch: 9/1/2017
Index Date (LANDSAT-8) Time (LANDSAT-8) Lat,Lon (LANDSAT-8) SZA (LANDSAT-8 ) Date (METOP-A) Time (METOP-A) Lat,Lon (METOP-A) SZA (METOP-A ) Distance(km) Time Diff (sec)
1 09/01/2017 19:28:21 81.23, -70.36 75.49 09/01/2017 19:27:14 81.22, -70.50 75.44 2.46 67
2 09/01/2017 20:17:47 -81.25, 97.58 104.46 09/01/2017 20:17:53 -81.25, 97.65 104.45 1.16 6
3 09/04/2017 15:02:35 81.24, -3.76 76.57 09/04/2017 15:01:32 81.24, -3.66 76.55 1.67 63
4 09/04/2017 15:52:02 -81.24, 163.83 103.43 09/04/2017 15:52:13 -81.24, 163.73 103.44 1.81 11
5 09/07/2017 10:36:51 81.23, 62.44 77.60 09/07/2017 10:35:53 81.23, 62.40 77.57 0.71 58
6 09/07/2017 11:26:17 -81.25,-129.57 102.34 09/07/2017 11:26:32 -81.25,-129.44 102.32 2.31 15
7 09/10/2017 06:11:06 81.23, 128.97 78.69 09/10/2017 06:10:13 81.23, 128.83 78.65 2.46 53
8 09/10/2017 07:00:32 -81.25, -63.02 101.24 09/10/2017 07:00:52 -81.25, -63.00 101.24 0.36 20
9 09/13/2017 01:45:20 81.23,-164.53 79.79 09/13/2017 01:44:31 81.24,-164.37 79.79 2.75 49




NCC Satellite Simultaneous Nadir Overpasses (SNOs) Prediction Service
